Location: Soapstone Prairie Natural Area
(40.9437°N, 105.0829°W)
Time: 04:13:08
(UTC-06:00)

ISS - Visible Passes

Search period start: 25 October 2014 00:00
Search period end: 03 November 2014 23:00
Orbit: 412 x 416 km, 51.6° (Epoch: 25 October)

Date Brightness Start Highest point End Pass type
(mag) Time Alt. Az. Time Alt. Az. Time Alt. Az.
25 Oct -1.6 19:59:47 10° WNW 20:02:44 29° SW 20:03:08 28° SSW visible
26 Oct -2.6 19:10:20 10° WNW 19:13:36 53° SW 19:16:35 12° SE visible
27 Oct -0.1 19:59:45 10° WSW 20:00:35 11° SW 20:01:24 10° SW visible
28 Oct -0.5 19:09:02 10° W 19:11:29 19° SW 19:13:55 10° S visible
